Location: Ferchesar
(52.6477°N, 12.4298°E)
Time: 08:04:47
(UTC+01:00)

S-56A Canister/Altair - Pass Details

Date: 13 December 2021
Orbit: 633 x 2499 km, 38.9° (Epoch: 19 January)

Event Time Altitude Azimuth Distance (km) Brightness Sun altitude
Rises 22:45:14 0° 247° (WSW) 5,931 12.1 -56.9°
Enters shadow 22:49:15 - 242° (WSW) 4,858 11.6 -57.2°
Reaches altitude 10° 22:49:46 10° 241° (WSW) 4,723 - -57.3°
Maximum altitude 23:00:48 38° 181° (S) 2,453 - -58.1°
Drops below altitude 10° 23:08:42 10° 118° (ESE) 3,373 - -58.7°
Sets 23:11:23 0° 109° (ESE) 4,107 - -58.8°
